Regional Weather Roundup
Issued by NWS

Home | Current Version | Previous Version | Text Only | Print | Product List | Glossary Off
Versions: 1 2 3 4 5 6 7 8 9 10 11 12 13 14 15 16 17 18 19 20 21 22 23 24 25 26 27 28 29 30 31 32 33 34 35 36 37 38 39 40 41 42 43 44 45 46 47 48 49 50

000
ASUS43 KMPX 302310
RWRMN
WEATHER ROUNDUP FOR MINNESOTA
NATIONAL WEATHER SERVICE TWIN CITIES/CHANHASSEN MN
600 PM CDT SAT JUL 30 2016


NOTE: "FAIR" INDICATES FEW OR NO CLOUDS BELOW 12,000 FEET WITH NO
SIGNIFICANT WEATHER AND/OR OBSTRUCTIONS TO VISIBILITY. N/A MEANS
CURRENT SKY AND/OR WEATHER CONDITIONS ARE NOT AVAILABLE.

MNZ060>063-068>070-310000-
   Twin Cities Metro

CITY           SKY/WX    TMP DP  RH WIND       PRES   REMARKS
TWIN CITIES    LGT RAIN  75  67  76 S7        29.98S
ST PAUL        CLOUDY    76  65  68 S10       29.98S
CRYSTAL        CLOUDY    79  60  52 SE7       29.96F
BLAINE         PTSUNNY   82  63  51 SE8       29.98S
LAKEVILLE      MOSUNNY   73  64  73 E6        29.99F
EDEN PRAIRIE   CLOUDY    77  65  66 E10       29.97F
LAKEVILLE      MOSUNNY   73  64  73 E6        29.99F
SOUTH ST PAUL  MOSUNNY   76  63  64 SE8       29.98S
LAKE ELMO      FAIR      79  64  61 CALM      29.99F
$$
MNZ001>005-007-008-013>017-022>024-027-028-310000-
   Northwest Minnesota

CITY           SKY/WX    TMP DP  RH WIND       PRES   REMARKS
BEMIDJI        SUNNY     76  60  56 S6        29.99S
HALLOCK        CLOUDY    79  66  65 S13       29.88F
ROSEAU         CLOUDY    75  66  73 S9        29.93S
WARROAD        PTSUNNY   75  64  69 S5        29.94F
THIEF RVR FALL MOSUNNY   78  62  57 S12       29.95S
CROOKSTON      CLOUDY    79  61  53 S14       29.93S
FOSSTON        SUNNY     77  61  57 S8        29.97S
DETROIT LAKES  SUNNY     77  57  50 SE10      29.98F
MOORHEAD       SUNNY     79  61  53 SE7       29.94S
PARK RAPIDS    SUNNY     80  54  40 SE10      29.98F
MAHNOMEN       FAIR      77  61  56 S8        29.96S
$$
MNZ006-009>011-018-025>026-310000-
   North Central Minnesota

CITY           SKY/WX    TMP DP  RH WIND       PRES   REMARKS
BAUDETTE       SUNNY     78  58  49 S12       29.96S
FLAG ISLAND    PTSUNNY   77  64  65 S8        29.92F
INTL FALLS     LGT RAIN  70  63  78 SW3       29.99F
WASKISH        CLOUDY    77  61  57 S7        29.98S
BIG FORK       MOSUNNY   72  61  68 CALM      30.00F
LONGVILLE      CLOUDY    75  55  50 S3        29.99F
GRAND RAPIDS   SUNNY     78  52  40 CALM      30.01F
CRANE LAKE     SUNNY     77  50  38 S3        30.01S
ORR            SUNNY     75  52  43 CALM        N/A
COOK           SUNNY     79  54  41 S5        30.00F
WALKER         FAIR      76  58  54 SE5       29.99F
$$
MNZ012-019>021-037-310000-
   Northeast Minnesota

CITY           SKY/WX    TMP DP  RH WIND       PRES   REMARKS
DULUTH         MOSUNNY   72  60  66 E9        30.02F
ELY            SUNNY     77  45  31 SW6       30.01F
HIBBING        SUNNY     76  53  44 S3        30.00F
EVELETH        SUNNY     78  45  31 S6        30.01F
DULUTH HARBOR  SUNNY     68  64  88 NE8       30.02S
TWO HARBORS    SUNNY     75  61  60 SE3       30.01S
SILVER BAY     SUNNY     73  61  64 CALM      30.02S
GRAND MARAIS     N/A     68  57  68 E5        30.03F
G MARAIS ARPRT SUNNY     70  54  56 E3        30.08F
$$
MNZ029>031-032-039>041-046>048-054>057-064-310000-
   West Central Minnesota

CITY           SKY/WX    TMP DP  RH WIND       PRES   REMARKS
FERGUS FALLS   SUNNY     79  59  50 S9        29.97S
WHEATON        SUNNY     81  63  54 SE12      29.96F
MORRIS         SUNNY     81  54  39 S8        29.96S
ALEXANDRIA     SUNNY     77  55  46 SE8       29.99F
ELBOW LAKE     FAIR      77  59  52 E9        29.97F
WADENA         SUNNY     77  57  50 SE7       29.98F
GLENWOOD       SUNNY     79  55  44 SE6       29.99S
APPLETON       SUNNY     79  55  44 SE8       29.96S
BENSON         SUNNY     79  55  44 S7        29.97S
ORTONVILLE     SUNNY     79  57  47 SE6       29.96S
MADISON        SUNNY     77  57  50 SE7       29.96F
WILLMAR        FAIR      79  57  47 SE5       29.99S
$$
MNZ033>034-036-042>043-049>051-058-059-310000-
   Central Minnesota

CITY           SKY/WX    TMP DP  RH WIND       PRES   REMARKS
ST CLOUD       MOSUNNY   80  63  55 SE6       29.97F
SAUK CENTRE    FAIR      78  57  47 SE9       29.98F
PAYNESVILLE    MOSUNNY   78  55  44 S3        29.98F
AITKIN         SUNNY     81  52  36 SW3       29.98S
PINE RIVER     SUNNY     79  59  50 SE5       30.02F
BRAINERD       PTSUNNY   77  60  55 SE7       29.99S
STAPLES        MOSUNNY   79  55  44 S6        29.98F
LONG PRAIRIE   FAIR      77  59  53 E6        29.98F
LITTLE FALLS   MOSUNNY   79  59  50 SE7       29.98F
LITCHFIELD     SUNNY     79  57  47 CALM      29.98S
BUFFALO        SUNNY     79  60  51 SE3       29.99S
MAPLE LAKE     MOSUNNY   81  65  57 CALM      29.98F
HUTCHINSON     CLOUDY    79  61  54 S5        29.99S
$$
MNZ037-044-045-052-053-310000-
   East Central Minnesota

CITY           SKY/WX    TMP DP  RH WIND       PRES   REMARKS
PRINCETON      PTSUNNY   79  64  61 E8        29.98F
MORA           SUNNY     75  59  57 SE7       30.01S
CAMBRIDGE      MOSUNNY   81  63  54 E6        29.98S
RUSH CITY      LGT RAIN  76  64  67 CALM      30.00S
MOOSE LAKE     MOSUNNY   77  64  65 CALM      29.99S
HINCKLEY       FAIR      77  63  61 SE8       29.99F
CLOQUET        MOSUNNY   73  61  64 E6        30.01F
MCGREGOR       CLOUDY    77  63  61 SE9       30.01S
$$
MNZ071>073-080-081-089-090-097-098-310000-
   Southwest Minnesota

CITY           SKY/WX    TMP DP  RH WIND       PRES   REMARKS
MONTEVIDEO     SUNNY     79  55  44 S7        29.99S
GRANITE FALLS  SUNNY     79  59  49 S5        29.99R
CANBY          SUNNY     79  58  48 SE8       29.97S
MARSHALL       SUNNY     79  58  48 S10       29.97S
REDWOOD FALLS  SUNNY     80  53  39 S9        29.97S
OLIVIA         SUNNY     77  55  47 SE8       29.97S
PIPESTONE      SUNNY     79  55  44 S6        29.98F
WINDOM         MOSUNNY   79  57  47 SE7       29.98S
WORTHINGTON    SUNNY     77  60  55 S7        29.99F
JACKSON        SUNNY     77  59  53 SE7       29.99F
TRACY          SUNNY     79  58  48 S7        29.98S
SLAYTON        SUNNY     78  58  49 S7        29.99F
$$
MNZ065>067-074>077-082>085-091>093-310000-
   South Central Minnesota

CITY           SKY/WX    TMP DP  RH WIND       PRES   REMARKS
MANKATO        SUNNY     77  63  61 SE13      29.98S
NEW ULM        MOSUNNY   79  57  47 S8        29.97F
ST JAMES       PTSUNNY   73  57  56 SE6       29.98F
FAIRMONT       MOSUNNY   77  61  57 SE6       29.98S
GLENCOE        MOSUNNY   82  65  57 S6        29.97S
FARIBAULT      PTSUNNY   75  66  73 S3        29.99F
OWATONNA       MOSUNNY   77  64  65 E5        30.00S
WASECA         SUNNY     77  68  73 SE5       30.01S
ALBERT LEA     PTSUNNY   75  66  73 SE5       30.00S
$$
MNZ078>079-086>088-094>096-310000-
   Southeast Minnesota

CITY           SKY/WX    TMP DP  RH WIND       PRES   REMARKS
ROCHESTER      MOSUNNY   74  68  81 CALM      30.01S
RED WING       PTSUNNY   75  63  64 SW7       29.98F
STANTON        CLOUDY    75  66  73 E6        29.98F
DODGE CENTER   HVY RAIN  70  63  78 SE13      30.02R
WINONA         PTSUNNY   79  63  57 SE5       29.99S
AUSTIN         CLOUDY    73  66  78 CALM      29.99S
PRESTON        CLOUDY    76  62  63 SE5       30.01S
$$
ABBREVIATIONS USED IN REMARKS
   TC - TEMPERATURES IN CELSIUS
  WCI - WIND CHILL INDEX
   HX - HEAT INDEX
  VSB - VISIBILITY
$$



USA.gov is the U.S. government's official web portal to all federal, state and local government web resources and services.